Location: ??
(34.9170°N, 135.5016°E)
Time: 22:56:35
(UTC+00:00)

RS-15 - Pass Details

Date: 26 April 2021
Orbit: 1888 x 2157 km, 64.8° (Epoch: 12 May)

Event Time Altitude Azimuth Distance (km) Brightness Sun altitude
Rises 15:54:37 0° 331° (NNW) 5,522 10.9 -39.4°
Reaches altitude 10° 15:58:35 10° 341° (NNW) 4,556 10.4 -39.1°
Maximum altitude 16:09:08 34° 44° (NE) 3,098 9.4 -38.3°
Drops below altitude 10° 16:19:52 10° 106° (ESE) 4,667 10.1 -37.4°
Sets 16:23:55 0° 115° (ESE) 5,671 10.5 -37.0°
